Location: Asheville, NC
(35.6000°N, 82.5500°W)
Time: 23:28:06
(UTC-04:00)

LilacSat-2 - Pass Details

Date: 06 January 2018
Orbit: 515 x 536 km, 97.5° (Epoch: 25 April)

Event Time Altitude Azimuth Distance (km) Brightness Sun altitude
Rises 05:44:40 0° 28° (NNE) 2,666 ? -22.9°
Reaches altitude 10° 05:47:12 10° 45° (NE) 1,767 ? -22.4°
Maximum altitude 05:50:08 21° 95° (E) 1,211 ? -21.8°
Drops below altitude 10° 05:53:02 10° 146° (SE) 1,747 ? -21.3°
Sets 05:55:30 0° 162° (SSE) 2,625 ? -20.8°
